Netzbetreiber: Stadtwerke Lindau GmbH & Co. KG ;;
Netzgebiet: Lindau;;
Gesetzliche Grundlage: � 17 Abs. 2 Nr. 1 StromNZV ;;
;;
Einheit: kW ;;
Betrachtungszeitraum: 2022;;
Jahreshoechstlast;;
Datum;Zeit;Ebene MS
01.01.2022;00:15;11308
01.01.2022;00:30;11094
01.01.2022;00:45;11090
01.01.2022;01:00;11090
01.01.2022;01:15;10651
01.01.2022;01:30;10653
01.01.2022;01:45;10407
01.01.2022;02:00;9998
01.01.2022;02:15;9998
01.01.2022;02:30;9751
01.01.2022;02:45;9565
01.01.2022;03:00;9347
01.01.2022;03:15;9349
01.01.2022;03:30;9126
01.01.2022;03:45;9100
01.01.2022;04:00;8908
01.01.2022;04:15;9347
01.01.2022;04:30;9102
01.01.2022;04:45;9124
01.01.2022;05:00;9309
01.01.2022;05:15;9309
01.01.2022;05:30;9523
01.01.2022;05:45;9555
01.01.2022;06:00;9775
01.01.2022;06:15;9493
01.01.2022;06:30;9549
01.01.2022;06:45;9741
01.01.2022;07:00;9988
01.01.2022;07:15;9952
01.01.2022;07:30;10387
01.01.2022;07:45;10605
01.01.2022;08:00;10633
01.01.2022;08:15;10414
01.01.2022;08:30;11076
01.01.2022;08:45;10836
01.01.2022;09:00;10857
01.01.2022;09:15;10492
01.01.2022;09:30;10057
01.01.2022;09:45;9870
01.01.2022;10:00;9913
01.01.2022;10:15;10191
01.01.2022;10:30;10021
01.01.2022;10:45;9881
01.01.2022;11:00;9227
01.01.2022;11:15;8591
01.01.2022;11:30;9080
01.01.2022;11:45;8632
01.01.2022;12:00;8451
01.01.2022;12:15;8435
01.01.2022;12:30;8466
01.01.2022;12:45;8218
01.01.2022;13:00;8406
01.01.2022;13:15;8205
01.01.2022;13:30;8162
01.01.2022;13:45;7892
01.01.2022;14:00;8701
01.01.2022;14:15;8666
01.01.2022;14:30;8603
01.01.2022;14:45;9670
01.01.2022;15:00;10542
01.01.2022;15:15;10941
01.01.2022;15:30;10978
01.01.2022;15:45;10968
01.01.2022;16:00;11387
01.01.2022;16:15;11992
01.01.2022;16:30;12874
01.01.2022;16:45;13739
01.01.2022;17:00;14366
01.01.2022;17:15;15242
01.01.2022;17:30;16339
01.01.2022;17:45;16778
01.01.2022;18:00;17436
01.01.2022;18:15;17436
01.01.2022;18:30;17655
01.01.2022;18:45;16997
01.01.2022;19:00;16969
01.01.2022;19:15;16997
01.01.2022;19:30;16339
01.01.2022;19:45;16311
01.01.2022;20:00;15901
01.01.2022;20:15;15462
01.01.2022;20:30;15434
01.01.2022;20:45;14556
01.01.2022;21:00;14145
01.01.2022;21:15;13898
01.01.2022;21:30;13706
01.01.2022;21:45;13239
01.01.2022;22:00;13239
01.01.2022;22:15;13678
01.01.2022;22:30;13678
01.01.2022;22:45;13048
01.01.2022;23:00;12800
01.01.2022;23:15;12361
01.01.2022;23:30;12142
01.01.2022;23:45;11511
02.01.2022;00:00;11264
02.01.2022;00:15;10825
02.01.2022;00:30;10385
02.01.2022;00:45;10385
02.01.2022;01:00;9986
02.01.2022;01:15;9739
02.01.2022;01:30;9523
02.01.2022;01:45;9309
02.01.2022;02:00;8868
02.01.2022;02:15;9094
02.01.2022;02:30;8876
02.01.2022;02:45;8634
02.01.2022;03:00;8690
02.01.2022;03:15;8692
02.01.2022;03:30;8882
02.01.2022;03:45;8882
02.01.2022;04:00;8690
02.01.2022;04:15;8912
02.01.2022;04:30;9130
02.01.2022;04:45;9096
02.01.2022;05:00;9337
02.01.2022;05:15;9529
02.01.2022;05:30;9773
02.01.2022;05:45;9741
02.01.2022;06:00;9994
02.01.2022;06:15;9743
02.01.2022;06:30;9769
02.01.2022;06:45;9984
02.01.2022;07:00;10180
02.01.2022;07:15;10427
02.01.2022;07:30;10647
02.01.2022;07:45;11084
02.01.2022;08:00;11266
02.01.2022;08:15;11588
02.01.2022;08:30;12003
02.01.2022;08:45;12229
02.01.2022;09:00;12478
02.01.2022;09:15;13410
02.01.2022;09:30;13462
02.01.2022;09:45;13741
02.01.2022;10:00;12406
02.01.2022;10:15;12136
02.01.2022;10:30;13077
02.01.2022;10:45;11904
02.01.2022;11:00;13364
02.01.2022;11:15;12846
02.01.2022;11:30;13914
02.01.2022;11:45;14710
02.01.2022;12:00;12786
02.01.2022;12:15;13696
02.01.2022;12:30;13898
02.01.2022;12:45;13467
02.01.2022;13:00;13869
02.01.2022;13:15;13648
02.01.2022;13:30;13428
02.01.2022;13:45;13825
02.01.2022;14:00;12682
02.01.2022;14:15;13116
02.01.2022;14:30;11004
02.01.2022;14:45;12171
02.01.2022;15:00;12573
02.01.2022;15:15;13018
02.01.2022;15:30;13002
02.01.2022;15:45;13607
02.01.2022;16:00;13785
02.01.2022;16:15;14414
02.01.2022;16:30;14767
02.01.2022;16:45;15341
02.01.2022;17:00;16078
02.01.2022;17:15;16685
02.01.2022;17:30;17175
02.01.2022;17:45;17259
02.01.2022;18:00;17781
02.01.2022;18:15;17669
02.01.2022;18:30;17427
02.01.2022;18:45;17455
02.01.2022;19:00;17534
02.01.2022;19:15;16983
02.01.2022;19:30;16792
02.01.2022;19:45;16353
02.01.2022;20:00;16325
02.01.2022;20:15;15915
02.01.2022;20:30;15476
02.01.2022;20:45;15009
02.01.2022;21:00;14407
02.01.2022;21:15;14379
02.01.2022;21:30;13940
02.01.2022;21:45;13501
02.01.2022;22:00;13473
02.01.2022;22:15;14052
02.01.2022;22:30;13749
02.01.2022;22:45;13473
02.01.2022;23:00;13034
02.01.2022;23:15;12516
02.01.2022;23:30;12156
02.01.2022;23:45;11498
03.01.2022;00:00;11252
03.01.2022;00:15;10460
03.01.2022;00:30;10488
03.01.2022;00:45;10061
03.01.2022;01:00;9925
03.01.2022;01:15;9677
03.01.2022;01:30;9895
03.01.2022;01:45;9460
03.01.2022;02:00;9240
03.01.2022;02:15;8883
03.01.2022;02:30;8855
03.01.2022;02:45;9019
03.01.2022;03:00;9236
03.01.2022;03:15;9017
03.01.2022;03:30;9234
03.01.2022;03:45;9236
03.01.2022;04:00;9017
03.01.2022;04:15;9236
03.01.2022;04:30;9456
03.01.2022;04:45;9669
03.01.2022;05:00;9663
03.01.2022;05:15;10538
03.01.2022;05:30;11200
03.01.2022;05:45;11637
03.01.2022;06:00;12078
03.01.2022;06:15;12294
03.01.2022;06:30;12952
03.01.2022;06:45;13170
03.01.2022;07:00;13828
03.01.2022;07:15;14486
03.01.2022;07:30;15366
03.01.2022;07:45;16682
03.01.2022;08:00;17338
03.01.2022;08:15;18215
03.01.2022;08:30;18654
03.01.2022;08:45;18657
03.01.2022;09:00;18882
03.01.2022;09:15;19328
03.01.2022;09:30;19332
03.01.2022;09:45;20430
03.01.2022;10:00;20444
03.01.2022;10:15;20688
03.01.2022;10:30;20269
03.01.2022;10:45;20035
03.01.2022;11:00;19654
03.01.2022;11:15;20304
03.01.2022;11:30;20934
03.01.2022;11:45;21351
03.01.2022;12:00;21569
03.01.2022;12:15;21570
03.01.2022;12:30;21361
03.01.2022;12:45;21346
03.01.2022;13:00;21332
03.01.2022;13:15;20897
03.01.2022;13:30;20068
03.01.2022;13:45;19827
03.01.2022;14:00;19816
03.01.2022;14:15;19602
03.01.2022;14:30;19182
03.01.2022;14:45;19376
03.01.2022;15:00;19169
03.01.2022;15:15;18939
03.01.2022;15:30;18723
03.01.2022;15:45;18475
03.01.2022;16:00;18890
03.01.2022;16:15;18886
03.01.2022;16:30;18878
03.01.2022;16:45;19531
03.01.2022;17:00;20188
03.01.2022;17:15;20845
03.01.2022;17:30;21284
03.01.2022;17:45;21284
03.01.2022;18:00;21722
03.01.2022;18:15;21503
03.01.2022;18:30;21065
03.01.2022;18:45;20845
03.01.2022;19:00;20626
03.01.2022;19:15;20188
03.01.2022;19:30;19969
03.01.2022;19:45;19750
03.01.2022;20:00;19750
03.01.2022;20:15;19969
03.01.2022;20:30;18215
03.01.2022;20:45;17557
03.01.2022;21:00;17119
03.01.2022;21:15;16461
03.01.2022;21:30;17338
03.01.2022;21:45;16241
03.01.2022;22:00;15364
03.01.2022;22:15;16241
03.01.2022;22:30;15803
03.01.2022;22:45;16461
03.01.2022;23:00;15803
03.01.2022;23:15;13828
03.01.2022;23:30;13609
03.01.2022;23:45;13170
04.01.2022;00:00;12952
04.01.2022;00:15;13619
04.01.2022;00:30;12745
04.01.2022;00:45;11661
04.01.2022;01:00;11220
04.01.2022;01:15;11003
04.01.2022;01:30;11003
04.01.2022;01:45;10783
04.01.2022;02:00;11663
04.01.2022;02:15;10564
04.01.2022;02:30;10125
04.01.2022;02:45;10127
04.01.2022;03:00;10127
04.01.2022;03:15;10344
04.01.2022;03:30;11444
04.01.2022;03:45;11005
04.01.2022;04:00;10346
04.01.2022;04:15;10566
04.01.2022;04:30;10564
04.01.2022;04:45;10564
04.01.2022;05:00;10773
04.01.2022;05:15;11430
04.01.2022;05:30;12962
04.01.2022;05:45;13182
04.01.2022;06:00;12745
04.01.2022;06:15;13178
04.01.2022;06:30;13395
04.01.2022;06:45;14710
04.01.2022;07:00;15807
04.01.2022;07:15;15370
04.01.2022;07:30;15589
04.01.2022;07:45;16465
04.01.2022;08:00;16901
04.01.2022;08:15;17338
04.01.2022;08:30;17777
04.01.2022;08:45;17996
04.01.2022;09:00;18876
04.01.2022;09:15;19097
04.01.2022;09:30;19539
04.01.2022;09:45;20640
04.01.2022;10:00;20860
04.01.2022;10:15;19992
04.01.2022;10:30;20431
04.01.2022;10:45;20659
04.01.2022;11:00;20658
04.01.2022;11:15;20904
04.01.2022;11:30;21544
04.01.2022;11:45;21314
04.01.2022;12:00;21763
04.01.2022;12:15;20915
04.01.2022;12:30;19863
04.01.2022;12:45;18197
04.01.2022;13:00;18202
04.01.2022;13:15;17731
04.01.2022;13:30;18760
04.01.2022;13:45;19806
04.01.2022;14:00;20011
04.01.2022;14:15;19151
04.01.2022;14:30;19139
04.01.2022;14:45;19582
04.01.2022;15:00;19780
04.01.2022;15:15;19582
04.01.2022;15:30;20860
04.01.2022;15:45;20203
04.01.2022;16:00;19542
04.01.2022;16:15;19532
04.01.2022;16:30;19969
04.01.2022;16:45;20188
04.01.2022;17:00;21065
04.01.2022;17:15;21065
04.01.2022;17:30;21503
04.01.2022;17:45;21503
04.01.2022;18:00;21503
04.01.2022;18:15;21065
04.01.2022;18:30;20626
04.01.2022;18:45;20845
04.01.2022;19:00;20407
04.01.2022;19:15;21284
04.01.2022;19:30;21284
04.01.2022;19:45;19530
04.01.2022;20:00;19311
04.01.2022;20:15;18873
04.01.2022;20:30;18434
04.01.2022;20:45;17557
04.01.2022;21:00;17557
04.01.2022;21:15;16461
04.01.2022;21:30;16241
04.01.2022;21:45;16022
04.01.2022;22:00;15583
04.01.2022;22:15;16241
04.01.2022;22:30;15803
04.01.2022;22:45;15364
04.01.2022;23:00;14706
04.01.2022;23:15;14048
04.01.2022;23:30;13828
04.01.2022;23:45;14486
05.01.2022;00:00;13389
05.01.2022;00:15;12519
05.01.2022;00:30;12304
05.01.2022;00:45;11871
05.01.2022;01:00;11655
05.01.2022;01:15;11218
05.01.2022;01:30;11218
05.01.2022;01:45;11440
05.01.2022;02:00;10779
05.01.2022;02:15;10560
05.01.2022;02:30;10781
05.01.2022;02:45;10779
05.01.2022;03:00;11220
05.01.2022;03:15;11218
05.01.2022;03:30;11220
05.01.2022;03:45;11218
05.01.2022;04:00;11440
05.01.2022;04:15;11657
05.01.2022;04:30;11438
05.01.2022;04:45;11877
05.01.2022;05:00;12086
05.01.2022;05:15;12302
05.01.2022;05:30;12521
05.01.2022;05:45;13178
05.01.2022;06:00;13397
05.01.2022;06:15;14267
05.01.2022;06:30;14492
05.01.2022;06:45;14929
05.01.2022;07:00;15368
05.01.2022;07:15;16030
05.01.2022;07:30;16684
05.01.2022;07:45;17119
05.01.2022;08:00;17998
05.01.2022;08:15;19092
05.01.2022;08:30;19311
05.01.2022;08:45;19969
05.01.2022;09:00;20408
05.01.2022;09:15;20847
05.01.2022;09:30;20851
05.01.2022;09:45;21072
05.01.2022;10:00;20857
05.01.2022;10:15;21292
05.01.2022;10:30;22171
05.01.2022;10:45;23048
05.01.2022;11:00;23049
05.01.2022;11:15;23264
05.01.2022;11:30;23492
05.01.2022;11:45;23285
05.01.2022;12:00;23298
05.01.2022;12:15;23076
05.01.2022;12:30;22424
05.01.2022;12:45;21986
05.01.2022;13:00;21993
05.01.2022;13:15;21571
05.01.2022;13:30;21364
05.01.2022;13:45;20716
05.01.2022;14:00;20712
05.01.2022;14:15;20483
05.01.2022;14:30;20464
05.01.2022;14:45;20865
05.01.2022;15:00;20007
05.01.2022;15:15;19836
05.01.2022;15:30;20034
05.01.2022;15:45;19579
05.01.2022;16:00;19159
05.01.2022;16:15;19341
05.01.2022;16:30;19978
05.01.2022;16:45;20189
05.01.2022;17:00;20626
05.01.2022;17:15;21284
05.01.2022;17:30;21722
05.01.2022;17:45;22160
05.01.2022;18:00;21941
05.01.2022;18:15;21722
05.01.2022;18:30;21722
05.01.2022;18:45;21722
05.01.2022;19:00;21722
05.01.2022;19:15;21284
05.01.2022;19:30;20845
05.01.2022;19:45;20407
05.01.2022;20:00;19969
05.01.2022;20:15;19530
05.01.2022;20:30;19092
05.01.2022;20:45;18215
05.01.2022;21:00;17777
05.01.2022;21:15;17338
05.01.2022;21:30;17119
05.01.2022;21:45;16461
05.01.2022;22:00;16022
05.01.2022;22:15;16680
05.01.2022;22:30;16241
05.01.2022;22:45;15583
05.01.2022;23:00;15145
05.01.2022;23:15;14486
05.01.2022;23:30;14267
05.01.2022;23:45;13389
06.01.2022;00:00;13174
06.01.2022;00:15;12737
06.01.2022;00:30;12304
06.01.2022;00:45;12096
06.01.2022;01:00;11657
06.01.2022;01:15;11440
06.01.2022;01:30;11218
06.01.2022;01:45;11001
06.01.2022;02:00;10781
06.01.2022;02:15;10342
06.01.2022;02:30;10344
06.01.2022;02:45;10781
06.01.2022;03:00;10564
06.01.2022;03:15;10781
06.01.2022;03:30;10564
06.01.2022;03:45;10783
06.01.2022;04:00;10564
06.01.2022;04:15;10344
06.01.2022;04:30;10783
06.01.2022;04:45;10773
06.01.2022;05:00;10989
06.01.2022;05:15;11208
06.01.2022;05:30;11426
06.01.2022;05:45;11208
06.01.2022;06:00;11204
06.01.2022;06:15;11202
06.01.2022;06:30;10983
06.01.2022;06:45;11202
06.01.2022;07:00;11641
06.01.2022;07:15;11641
06.01.2022;07:30;12298
06.01.2022;07:45;12519
06.01.2022;08:00;12739
06.01.2022;08:15;13170
06.01.2022;08:30;13389
06.01.2022;08:45;14048
06.01.2022;09:00;14487
06.01.2022;09:15;14707
06.01.2022;09:30;15145
06.01.2022;09:45;15584
06.01.2022;10:00;15831
06.01.2022;10:15;15860
06.01.2022;10:30;16137
06.01.2022;10:45;16491
06.01.2022;11:00;16709
06.01.2022;11:15;17204
06.01.2022;11:30;17423
06.01.2022;11:45;18025
06.01.2022;12:00;18026
06.01.2022;12:15;17806
06.01.2022;12:30;17559
06.01.2022;12:45;17835
06.01.2022;13:00;17369
06.01.2022;13:15;17122
06.01.2022;13:30;17122
06.01.2022;13:45;16464
06.01.2022;14:00;16245
06.01.2022;14:15;16026
06.01.2022;14:30;16024
06.01.2022;14:45;15804
06.01.2022;15:00;15585
06.01.2022;15:15;15585
06.01.2022;15:30;15366
06.01.2022;15:45;15585
06.01.2022;16:00;15393
06.01.2022;16:15;15803
06.01.2022;16:30;15803
06.01.2022;16:45;16022
06.01.2022;17:00;16680
06.01.2022;17:15;17777
06.01.2022;17:30;18434
06.01.2022;17:45;19092
06.01.2022;18:00;19120
06.01.2022;18:15;18929
06.01.2022;18:30;19204
06.01.2022;18:45;19339
06.01.2022;19:00;19311
06.01.2022;19:15;18873
06.01.2022;19:30;18434
06.01.2022;19:45;18215
06.01.2022;20:00;17777
06.01.2022;20:15;17557
06.01.2022;20:30;16899
06.01.2022;20:45;16680
06.01.2022;21:00;16022
06.01.2022;21:15;15803
06.01.2022;21:30;15364
06.01.2022;21:45;15173
06.01.2022;22:00;14925
06.01.2022;22:15;15364
06.01.2022;22:30;15364
06.01.2022;22:45;14925
06.01.2022;23:00;14486
06.01.2022;23:15;13856
06.01.2022;23:30;13254
06.01.2022;23:45;12980
07.01.2022;00:00;12737
07.01.2022;00:15;12332
07.01.2022;00:30;12112
07.01.2022;00:45;11875
07.01.2022;01:00;11442
07.01.2022;01:15;11250
07.01.2022;01:30;11033
07.01.2022;01:45;11035
07.01.2022;02:00;10789
07.01.2022;02:15;10462
07.01.2022;02:30;10518
07.01.2022;02:45;10406
07.01.2022;03:00;10348
07.01.2022;03:15;10568
07.01.2022;03:30;10598
07.01.2022;03:45;10570
07.01.2022;04:00;10570
07.01.2022;04:15;10624
07.01.2022;04:30;10789
07.01.2022;04:45;11011
07.01.2022;05:00;10999
07.01.2022;05:15;12090
07.01.2022;05:30;12090
07.01.2022;05:45;12531
07.01.2022;06:00;13409
07.01.2022;06:15;14062
07.01.2022;06:30;14722
07.01.2022;06:45;14722
07.01.2022;07:00;15161
07.01.2022;07:15;16034
07.01.2022;07:30;16694
07.01.2022;07:45;17350
07.01.2022;08:00;17125
07.01.2022;08:15;17777
07.01.2022;08:30;18654
07.01.2022;08:45;19092
07.01.2022;09:00;19750
07.01.2022;09:15;20188
07.01.2022;09:30;20627
07.01.2022;09:45;20627
07.01.2022;10:00;20846
07.01.2022;10:15;20846
07.01.2022;10:30;20413
07.01.2022;10:45;20860
07.01.2022;11:00;21297
07.01.2022;11:15;21732
07.01.2022;11:30;21729
07.01.2022;11:45;21950
07.01.2022;12:00;21517
07.01.2022;12:15;21298
07.01.2022;12:30;21297
07.01.2022;12:45;20857
07.01.2022;13:00;21074
07.01.2022;13:15;20635
07.01.2022;13:30;20853
07.01.2022;13:45;20414
07.01.2022;14:00;19974
07.01.2022;14:15;19535
07.01.2022;14:30;19755
07.01.2022;14:45;19098
07.01.2022;15:00;19096
07.01.2022;15:15;19531
07.01.2022;15:30;19312
07.01.2022;15:45;19531
07.01.2022;16:00;19530
07.01.2022;16:15;19530
07.01.2022;16:30;19750
07.01.2022;16:45;20188
07.01.2022;17:00;20626
07.01.2022;17:15;21503
07.01.2022;17:30;21941
07.01.2022;17:45;21941
07.01.2022;18:00;22160
07.01.2022;18:15;22160
07.01.2022;18:30;21941
07.01.2022;18:45;21941
07.01.2022;19:00;21503
07.01.2022;19:15;21284
07.01.2022;19:30;21065
07.01.2022;19:45;20626
07.01.2022;20:00;20188
07.01.2022;20:15;19530
07.01.2022;20:30;18873
07.01.2022;20:45;18434
07.01.2022;21:00;17996
07.01.2022;21:15;17557
07.01.2022;21:30;16899
07.01.2022;21:45;16680
07.01.2022;22:00;16241
07.01.2022;22:15;16899
07.01.2022;22:30;16461
07.01.2022;22:45;15803
07.01.2022;23:00;15803
07.01.2022;23:15;15145
07.01.2022;23:30;14925
07.01.2022;23:45;14048
08.01.2022;00:00;13828
08.01.2022;00:15;13170
08.01.2022;00:30;12950
08.01.2022;00:45;12731
08.01.2022;01:00;12735
08.01.2022;01:15;11859
08.01.2022;01:30;11867
08.01.2022;01:45;11432
08.01.2022;02:00;11214
08.01.2022;02:15;10995
08.01.2022;02:30;10777
08.01.2022;02:45;10781
08.01.2022;03:00;10785
08.01.2022;03:15;10566
08.01.2022;03:30;10568
08.01.2022;03:45;10346
08.01.2022;04:00;10348
08.01.2022;04:15;10566
08.01.2022;04:30;10568
08.01.2022;04:45;10570
08.01.2022;05:00;10564
08.01.2022;05:15;10991
08.01.2022;05:30;10889
08.01.2022;05:45;11021
08.01.2022;06:00;11193
08.01.2022;06:15;11433
08.01.2022;06:30;11409
08.01.2022;06:45;11598
08.01.2022;07:00;12093
08.01.2022;07:15;12257
08.01.2022;07:30;12917
08.01.2022;07:45;13354
08.01.2022;08:00;13568
08.01.2022;08:15;14001
08.01.2022;08:30;14220
08.01.2022;08:45;14715
08.01.2022;09:00;15345
08.01.2022;09:15;15812
08.01.2022;09:30;16252
08.01.2022;09:45;16033
08.01.2022;10:00;16447
08.01.2022;10:15;16697
08.01.2022;10:30;16725
08.01.2022;10:45;16923
08.01.2022;11:00;16930
08.01.2022;11:15;17376
08.01.2022;11:30;17223
08.01.2022;11:45;16813
08.01.2022;12:00;17003
08.01.2022;12:15;17886
08.01.2022;12:30;17690
08.01.2022;12:45;17092
08.01.2022;13:00;16637
08.01.2022;13:15;16165
08.01.2022;13:30;16427
08.01.2022;13:45;16178
08.01.2022;14:00;16192
08.01.2022;14:15;16180
08.01.2022;14:30;15929
08.01.2022;14:45;15745
08.01.2022;15:00;16182
08.01.2022;15:15;15542
08.01.2022;15:30;15725
08.01.2022;15:45;15706
08.01.2022;16:00;15724
08.01.2022;16:15;15907
08.01.2022;16:30;16122
08.01.2022;16:45;16774
08.01.2022;17:00;17240
08.01.2022;17:15;18528
08.01.2022;17:30;18994
08.01.2022;17:45;19377
08.01.2022;18:00;19815
08.01.2022;18:15;19871
08.01.2022;18:30;19843
08.01.2022;18:45;19624
08.01.2022;19:00;19405
08.01.2022;19:15;19158
08.01.2022;19:30;18775
08.01.2022;19:45;18061
08.01.2022;20:00;18089
08.01.2022;20:15;17212
08.01.2022;20:30;16526
08.01.2022;20:45;16115
08.01.2022;21:00;15429
08.01.2022;21:15;15238
08.01.2022;21:30;14799
08.01.2022;21:45;14360
08.01.2022;22:00;13893
08.01.2022;22:15;14799
08.01.2022;22:30;14580
08.01.2022;22:45;14141
08.01.2022;23:00;13702
08.01.2022;23:15;13235
08.01.2022;23:30;13071
08.01.2022;23:45;12604
09.01.2022;00:00;12165
09.01.2022;00:15;11918
09.01.2022;00:30;11698
09.01.2022;00:45;11479
09.01.2022;01:00;10848
09.01.2022;01:15;10381
09.01.2022;01:30;10437
09.01.2022;01:45;9970
09.01.2022;02:00;9778
09.01.2022;02:15;9750
09.01.2022;02:30;9559
09.01.2022;02:45;9311
09.01.2022;03:00;9559
09.01.2022;03:15;9091
09.01.2022;03:30;9311
09.01.2022;03:45;9091
09.01.2022;04:00;9367
09.01.2022;04:15;9311
09.01.2022;04:30;9311
09.01.2022;04:45;9531
09.01.2022;05:00;9559
09.01.2022;05:15;9998
09.01.2022;05:30;10189
09.01.2022;05:45;10189
09.01.2022;06:00;10217
09.01.2022;06:15;10217
09.01.2022;06:30;10189
09.01.2022;06:45;10217
09.01.2022;07:00;10629
09.01.2022;07:15;11096
09.01.2022;07:30;11315
09.01.2022;07:45;11287
09.01.2022;08:00;11946
09.01.2022;08:15;12193
09.01.2022;08:30;12413
09.01.2022;08:45;13291
09.01.2022;09:00;13484
09.01.2022;09:15;13955
09.01.2022;09:30;13963
09.01.2022;09:45;14415
09.01.2022;10:00;14809
09.01.2022;10:15;14876
09.01.2022;10:30;15080
09.01.2022;10:45;15501
09.01.2022;11:00;15105
09.01.2022;11:15;14716
09.01.2022;11:30;12797
09.01.2022;11:45;14905
09.01.2022;12:00;16010
09.01.2022;12:15;15385
09.01.2022;12:30;15215
09.01.2022;12:45;15770
09.01.2022;13:00;14924
09.01.2022;13:15;13694
09.01.2022;13:30;12004
09.01.2022;13:45;10272
09.01.2022;14:00;11515
09.01.2022;14:15;12755
09.01.2022;14:30;14188
09.01.2022;14:45;14833
09.01.2022;15:00;15497
09.01.2022;15:15;15280
09.01.2022;15:30;15261
09.01.2022;15:45;14862
09.01.2022;16:00;14821
09.01.2022;16:15;15272
09.01.2022;16:30;15678
09.01.2022;16:45;15896
09.01.2022;17:00;16554
09.01.2022;17:15;17403
09.01.2022;17:30;17870
09.01.2022;17:45;18089
09.01.2022;18:00;18528
09.01.2022;18:15;18747
09.01.2022;18:30;18556
09.01.2022;18:45;18309
09.01.2022;19:00;18309
09.01.2022;19:15;18089
09.01.2022;19:30;17870
09.01.2022;19:45;17623
09.01.2022;20:00;17184
09.01.2022;20:15;16773
09.01.2022;20:30;16335
09.01.2022;20:45;16003
09.01.2022;21:00;15621
09.01.2022;21:15;15205
09.01.2022;21:30;14850
09.01.2022;21:45;14412
09.01.2022;22:00;14328
09.01.2022;22:15;15233
09.01.2022;22:30;14794
09.01.2022;22:45;14136
09.01.2022;23:00;13753
09.01.2022;23:15;13011
09.01.2022;23:30;12819
09.01.2022;23:45;12410
10.01.2022;00:00;12416
10.01.2022;00:15;11953
10.01.2022;00:30;11740
10.01.2022;00:45;11307
10.01.2022;01:00;11335
10.01.2022;01:15;10870
10.01.2022;01:30;10648
10.01.2022;01:45;10678
10.01.2022;02:00;10211
10.01.2022;02:15;10239
10.01.2022;02:30;10211
10.01.2022;02:45;10211
10.01.2022;03:00;10075
10.01.2022;03:15;10267
10.01.2022;03:30;10429
10.01.2022;03:45;10403
10.01.2022;04:00;10431
10.01.2022;04:15;10650
10.01.2022;04:30;10622
10.01.2022;04:45;10814
10.01.2022;05:00;11081
10.01.2022;05:15;11406
10.01.2022;05:30;12250
10.01.2022;05:45;12966
10.01.2022;06:00;14064
10.01.2022;06:15;15376
10.01.2022;06:30;16473
10.01.2022;06:45;17354
10.01.2022;07:00;18010
10.01.2022;07:15;18885
10.01.2022;07:30;19542
10.01.2022;07:45;20853
10.01.2022;08:00;21284
10.01.2022;08:15;22160
10.01.2022;08:30;22380
10.01.2022;08:45;22824
10.01.2022;09:00;23269
10.01.2022;09:15;23279
10.01.2022;09:30;23288
10.01.2022;09:45;23732
10.01.2022;10:00;23295
10.01.2022;10:15;22441
10.01.2022;10:30;22044
10.01.2022;10:45;22268
10.01.2022;11:00;22509
10.01.2022;11:15;22521
10.01.2022;11:30;22764
10.01.2022;11:45;22575
10.01.2022;12:00;22795
10.01.2022;12:15;22457
10.01.2022;12:30;21608
10.01.2022;12:45;22559
10.01.2022;13:00;22517
10.01.2022;13:15;22339
10.01.2022;13:30;22360
10.01.2022;13:45;22061
10.01.2022;14:00;21629
10.01.2022;14:15;21400
10.01.2022;14:30;21173
10.01.2022;14:45;21158
10.01.2022;15:00;21577
10.01.2022;15:15;21129
10.01.2022;15:30;21344
10.01.2022;15:45;21327
10.01.2022;16:00;21532
10.01.2022;16:15;21303
10.01.2022;16:30;21298
10.01.2022;16:45;21507
10.01.2022;17:00;21941
10.01.2022;17:15;22379
10.01.2022;17:30;22817
10.01.2022;17:45;23474
10.01.2022;18:00;23474
10.01.2022;18:15;23036
10.01.2022;18:30;23036
10.01.2022;18:45;23036
10.01.2022;19:00;22817
10.01.2022;19:15;22598
10.01.2022;19:30;21941
10.01.2022;19:45;21503
10.01.2022;20:00;21284
10.01.2022;20:15;20845
10.01.2022;20:30;20188
10.01.2022;20:45;19530
10.01.2022;21:00;18873
10.01.2022;21:15;18434
10.01.2022;21:30;17777
10.01.2022;21:45;17119
10.01.2022;22:00;16899
10.01.2022;22:15;17338
10.01.2022;22:30;17119
10.01.2022;22:45;16461
10.01.2022;23:00;16022
10.01.2022;23:15;15364
10.01.2022;23:30;14486
10.01.2022;23:45;14269
11.01.2022;00:00;13838
11.01.2022;00:15;13625
11.01.2022;00:30;13192
11.01.2022;00:45;12980
11.01.2022;01:00;12759
11.01.2022;01:15;12322
11.01.2022;01:30;12320
11.01.2022;01:45;12102
11.01.2022;02:00;11661
11.01.2022;02:15;11663
11.01.2022;02:30;11661
11.01.2022;02:45;11883
11.01.2022;03:00;11883
11.01.2022;03:15;12100
11.01.2022;03:30;11883
11.01.2022;03:45;11663
11.01.2022;04:00;11881
11.01.2022;04:15;12100
11.01.2022;04:30;12541
11.01.2022;04:45;12535
11.01.2022;05:00;12751
11.01.2022;05:15;13401
11.01.2022;05:30;13842
11.01.2022;05:45;14281
11.01.2022;06:00;15380
11.01.2022;06:15;16471
11.01.2022;06:30;17346
11.01.2022;06:45;18225
11.01.2022;07:00;18883
11.01.2022;07:15;19975
11.01.2022;07:30;21073
11.01.2022;07:45;21294
11.01.2022;08:00;21945
11.01.2022;08:15;22599
11.01.2022;08:30;23042